This is the latest recevied weather packets stored in our database for station/object W4DHW-4. If no packets are shown the sender has not sent any weather packets the latest 10 day(s).
| Time | Temp. | Humidity | Pressure | Rain* | Wind** | Luminosity | Snow |
|---|---|---|---|---|---|---|---|
| 1777731467 | 11.11° C | 50% | 1015.3 hPa | 0 mm | - | 354 W/m² | - |
| 1777731165 | 10.56° C | 51% | 1015.5 hPa | 0 mm | - | 388 W/m² | - |
| 1777730863 | 10.56° C | 51% | 1015.6 hPa | 0 mm | - | 325 W/m² | - |
| 1777730561 | 10.56° C | 51% | 1015.6 hPa | 0 mm | - | 252 W/m² | - |
| 1777730256 | 10.56° C | 52% | 1015.6 hPa | 0 mm | - | 282 W/m² | - |
| 1777729953 | 10° C | 52% | 1015.5 hPa | 0 mm | - | 291 W/m² | - |
| 1777729649 | 10.56° C | 52% | 1015.8 hPa | 0 mm | - | 251 W/m² | - |
| 1777729347 | 10.56° C | 53% | 1015.5 hPa | 0 mm | - | 270 W/m² | - |
| 1777729043 | 10° C | 55% | 1015.3 hPa | 0 mm | - | 260 W/m² | - |
| 1777728739 | 10° C | 52% | 1015.5 hPa | 0 mm | - | 199 W/m² | - |
| 1777728436 | 10° C | 55% | 1015.4 hPa | 0 mm | - | 174 W/m² | - |
| 1777728133 | 10° C | 56% | 1015.3 hPa | 0 mm | - | 153 W/m² | - |
| 1777727831 | 10.56° C | 55% | 1015.3 hPa | 0 mm | - | 158 W/m² | - |
| 1777727528 | 10° C | 56% | 1015.1 hPa | 0 mm | - | 168 W/m² | - |
| 1777727225 | 10.56° C | 57% | 1014.9 hPa | 0 mm | - | 173 W/m² | - |
| 1777726922 | 10.56° C | 59% | 1015.3 hPa | 0 mm | - | 177 W/m² | - |
| 1777726618 | 10° C | 58% | 1014.9 hPa | 0 mm | - | 170 W/m² | - |
| 1777726316 | 10° C | 59% | 1015.1 hPa | 0 mm | - | 178 W/m² | - |
| 1777726012 | 10° C | 59% | 1015.3 hPa | 0 mm | - | 232 W/m² | - |
| 1777725709 | 10° C | 60% | 1015.1 hPa | 0 mm | - | 185 W/m² | - |
| 1777725408 | 10° C | 59% | 1014.8 hPa | 0 mm | - | 133 W/m² | - |
| 1777725105 | 9.44° C | 59% | 1014.9 hPa | 0 mm | - | 130 W/m² | - |
| 1777724801 | 9.44° C | 59% | 1014.9 hPa | 0 mm | - | 121 W/m² | - |
| 1777724498 | 9.44° C | 59% | 1014.8 hPa | 0 mm | - | 107 W/m² | - |
| 1777724196 | 9.44° C | 61% | 1014.8 hPa | 0 mm | - | 101 W/m² | - |
* Rain latest hour (hover to see other rain measurements)
** Current wind speed in m/s (hover to see current wind gust speed)